Location: ???????
(55.4362°N, 38.1183°E)
Time: 03:44:59
(UTC+00:00)

USA 267 - Pass Details

Date: 17 June 2021
Orbit: 1102 x 1106 km, 123.0° (Epoch: 24 July)

Event Time Altitude Azimuth Distance (km) Brightness Sun altitude
Exits shadow 19:40:06 - 116° (ESE) 3,937 5.7 -7.8°
Rises 19:40:09 0° 116° (ESE) 3,915 5.7 -7.8°
Reaches altitude 10° 19:42:38 10° 118° (ESE) 2,959 5.1 -8.0°
Maximum altitude 19:49:11 76° 204° (SSW) 1,137 3.3 -8.4°
Drops below altitude 10° 19:55:46 10° 291° (WNW) 2,970 6.2 -8.7°
Sets 19:58:15 0° 293° (WNW) 3,930 6.9 -8.8°
